Year,Month,Day,Hour,Minute,Value (Times are PST for temperature in C)
2023,03,30,07,50,6.80
2023,03,30,07,51,6.80
2023,03,30,07,52,6.80
2023,03,30,07,53,6.80
2023,03,30,07,54,6.80
2023,03,30,07,55,6.80
2023,03,30,07,56,6.80
2023,03,30,07,57,6.90
2023,03,30,07,58,6.90
2023,03,30,07,59,6.90
2023,03,30,08,00,6.90
2023,03,30,08,01,6.90
2023,03,30,08,02,6.90
2023,03,30,08,03,6.90
2023,03,30,08,04,6.90
2023,03,30,08,05,6.90
2023,03,30,08,06,7.00
2023,03,30,08,07,7.00
2023,03,30,08,08,7.10
2023,03,30,08,09,7.10
2023,03,30,08,10,7.10
2023,03,30,08,11,7.10
2023,03,30,08,12,7.20
2023,03,30,08,13,7.20
2023,03,30,08,14,7.20
2023,03,30,08,15,7.20
2023,03,30,08,16,7.20
2023,03,30,08,17,7.20
2023,03,30,08,18,7.20
2023,03,30,08,19,7.20
2023,03,30,08,20,7.20
2023,03,30,08,21,7.20
2023,03,30,08,22,7.30
2023,03,30,08,23,7.30
2023,03,30,08,24,7.30
2023,03,30,08,25,7.30
2023,03,30,08,26,7.30
2023,03,30,08,27,7.30
2023,03,30,08,28,7.30
2023,03,30,08,29,7.30
2023,03,30,08,30,7.30
2023,03,30,08,31,7.40
2023,03,30,08,32,7.40
2023,03,30,08,33,7.40
2023,03,30,08,34,7.40
2023,03,30,08,35,7.40
2023,03,30,08,36,7.50
2023,03,30,08,37,7.50
2023,03,30,08,38,7.50
2023,03,30,08,39,7.50
2023,03,30,08,40,7.50
2023,03,30,08,41,7.50
2023,03,30,08,42,7.50
2023,03,30,08,43,7.50
2023,03,30,08,44,7.50
2023,03,30,08,45,7.50
2023,03,30,08,46,7.60
2023,03,30,08,47,7.60
2023,03,30,08,48,7.60
2023,03,30,08,49,7.60
2023,03,30,08,50,7.60
2023,03,30,08,51,7.70
2023,03,30,08,52,7.70
2023,03,30,08,53,7.70
2023,03,30,08,54,7.70
2023,03,30,08,55,7.80
2023,03,30,08,56,7.80
2023,03,30,08,57,7.80
2023,03,30,08,58,7.80
2023,03,30,08,59,7.70
2023,03,30,09,00,7.70
2023,03,30,09,01,7.70
2023,03,30,09,02,7.70
2023,03,30,09,03,7.70
2023,03,30,09,04,7.70
2023,03,30,09,05,7.70
2023,03,30,09,06,7.70
2023,03,30,09,07,7.70
2023,03,30,09,08,7.70
2023,03,30,09,09,7.70
2023,03,30,09,10,7.80
2023,03,30,09,11,7.80
2023,03,30,09,12,7.80
2023,03,30,09,13,7.80
2023,03,30,09,14,7.80
2023,03,30,09,15,7.80
2023,03,30,09,16,7.80
2023,03,30,09,17,7.80
2023,03,30,09,18,7.80
2023,03,30,09,19,7.90
2023,03,30,09,20,7.90
2023,03,30,09,21,7.90
2023,03,30,09,22,7.90
2023,03,30,09,23,7.90
2023,03,30,09,24,7.90
2023,03,30,09,25,7.80
2023,03,30,09,26,7.80
2023,03,30,09,27,7.80
2023,03,30,09,28,7.90
2023,03,30,09,29,7.90
2023,03,30,09,30,8.00
2023,03,30,09,31,8.00
2023,03,30,09,32,8.10
2023,03,30,09,33,8.10
2023,03,30,09,34,8.20
2023,03,30,09,35,8.20
2023,03,30,09,36,8.30
2023,03,30,09,37,8.30
2023,03,30,09,38,8.30
2023,03,30,09,39,8.40
2023,03,30,09,40,8.40
2023,03,30,09,41,8.40
2023,03,30,09,42,8.50
2023,03,30,09,43,8.50
2023,03,30,09,44,8.60
2023,03,30,09,45,8.70
2023,03,30,09,46,8.70
2023,03,30,09,47,8.60
2023,03,30,09,48,8.60
2023,03,30,09,49,8.60
2023,03,30,09,50,8.70
2023,03,30,09,51,8.70
2023,03,30,09,52,8.70
2023,03,30,09,53,8.70
2023,03,30,09,54,8.70
2023,03,30,09,55,8.70
2023,03,30,09,56,8.70
2023,03,30,09,57,8.70
2023,03,30,09,58,8.70
2023,03,30,09,59,8.70
2023,03,30,10,00,8.70
2023,03,30,10,01,8.70
2023,03,30,10,02,8.60
2023,03,30,10,03,8.60
2023,03,30,10,04,8.60
2023,03,30,10,05,8.60
2023,03,30,10,06,8.60
2023,03,30,10,07,8.60
2023,03,30,10,08,8.60
2023,03,30,10,09,8.70
2023,03,30,10,10,8.70
2023,03,30,10,11,8.70
2023,03,30,10,12,8.80
2023,03,30,10,13,8.80
2023,03,30,10,14,8.90
2023,03,30,10,15,8.90
2023,03,30,10,16,9.00
2023,03,30,10,17,9.00
2023,03,30,10,18,9.10
2023,03,30,10,19,9.10
2023,03,30,10,20,9.10
2023,03,30,10,21,9.20
2023,03,30,10,22,9.20
2023,03,30,10,23,9.20
2023,03,30,10,24,9.20
2023,03,30,10,25,9.20
2023,03,30,10,26,9.30
2023,03,30,10,27,9.30
2023,03,30,10,28,9.30
2023,03,30,10,29,9.40
2023,03,30,10,30,9.50
2023,03,30,10,31,9.50
2023,03,30,10,32,9.50
2023,03,30,10,33,9.30
2023,03,30,10,34,9.20
2023,03,30,10,35,9.20
2023,03,30,10,36,9.20
2023,03,30,10,37,9.20
2023,03,30,10,38,9.30
2023,03,30,10,39,9.40
2023,03,30,10,40,9.40
2023,03,30,10,41,9.40
2023,03,30,10,42,9.40
2023,03,30,10,43,9.40
2023,03,30,10,44,9.40
2023,03,30,10,45,9.50
2023,03,30,10,46,9.50
2023,03,30,10,47,9.60
2023,03,30,10,48,9.70
2023,03,30,10,49,9.80
2023,03,30,10,50,9.80
2023,03,30,10,51,9.70
2023,03,30,10,52,9.70
2023,03,30,10,53,9.70
2023,03,30,10,54,9.60
2023,03,30,10,55,9.60
2023,03,30,10,56,9.70
2023,03,30,10,57,9.80
2023,03,30,10,58,9.70
2023,03,30,10,59,9.70
2023,03,30,11,00,9.80
2023,03,30,11,01,9.80
2023,03,30,11,02,9.90
2023,03,30,11,03,9.90
2023,03,30,11,04,9.80
2023,03,30,11,05,9.80
2023,03,30,11,06,9.80
2023,03,30,11,07,9.80
2023,03,30,11,08,9.80
2023,03,30,11,09,9.70
2023,03,30,11,10,9.70
2023,03,30,11,11,9.70
2023,03,30,11,12,9.80
2023,03,30,11,13,9.90
2023,03,30,11,14,9.90
2023,03,30,11,15,10.00
2023,03,30,11,16,10.00
2023,03,30,11,17,10.00
2023,03,30,11,18,9.90
2023,03,30,11,19,10.00
2023,03,30,11,20,10.00
2023,03,30,11,21,10.00
2023,03,30,11,22,10.10
2023,03,30,11,23,10.10
2023,03,30,11,24,10.10
2023,03,30,11,25,10.20
2023,03,30,11,26,10.20
2023,03,30,11,27,10.30
2023,03,30,11,28,10.40
2023,03,30,11,29,10.50
2023,03,30,11,30,10.60
2023,03,30,11,31,10.60
2023,03,30,11,32,10.60
2023,03,30,11,33,10.50
2023,03,30,11,34,10.40
2023,03,30,11,35,10.30
2023,03,30,11,36,10.10
2023,03,30,11,37,10.00
2023,03,30,11,38,9.90
2023,03,30,11,39,9.90
2023,03,30,11,40,10.00
2023,03,30,11,41,10.10
2023,03,30,11,42,10.10
2023,03,30,11,43,10.20
2023,03,30,11,44,10.20
2023,03,30,11,45,10.10
2023,03,30,11,46,10.10
2023,03,30,11,47,10.10
2023,03,30,11,48,10.10
2023,03,30,11,49,10.10
2023,03,30,11,50,10.10
2023,03,30,11,51,10.10
2023,03,30,11,52,10.20
2023,03,30,11,53,10.30
2023,03,30,11,54,10.30
2023,03,30,11,55,10.20
2023,03,30,11,56,10.20
2023,03,30,11,57,10.10
2023,03,30,11,58,10.10
2023,03,30,11,59,10.20
2023,03,30,12,00,10.30
2023,03,30,12,01,10.30
2023,03,30,12,02,10.40
2023,03,30,12,03,10.60
2023,03,30,12,04,10.70
2023,03,30,12,05,10.70
2023,03,30,12,06,10.70
2023,03,30,12,07,10.70
2023,03,30,12,08,10.70
2023,03,30,12,09,10.70
2023,03,30,12,10,10.60
2023,03,30,12,11,10.50
2023,03,30,12,12,10.40
2023,03,30,12,13,10.50
2023,03,30,12,14,10.50
2023,03,30,12,15,10.50
2023,03,30,12,16,10.50
2023,03,30,12,17,10.40
2023,03,30,12,18,10.40
2023,03,30,12,19,10.40
2023,03,30,12,20,10.30
2023,03,30,12,21,10.20
2023,03,30,12,22,10.20
2023,03,30,12,23,10.10
2023,03,30,12,24,10.10
2023,03,30,12,25,10.20
2023,03,30,12,26,10.30
2023,03,30,12,27,10.30
2023,03,30,12,28,10.30
2023,03,30,12,29,10.30
2023,03,30,12,30,10.30
2023,03,30,12,31,10.30
2023,03,30,12,32,10.30
2023,03,30,12,33,10.30
2023,03,30,12,34,10.30
2023,03,30,12,35,10.40
2023,03,30,12,36,10.50
2023,03,30,12,37,10.60
2023,03,30,12,38,10.60
2023,03,30,12,39,10.60
2023,03,30,12,40,10.70
2023,03,30,12,41,10.70
2023,03,30,12,42,10.70
2023,03,30,12,43,10.80
2023,03,30,12,44,10.80
2023,03,30,12,45,10.80
2023,03,30,12,46,10.70
2023,03,30,12,47,10.70
2023,03,30,12,48,10.80
2023,03,30,12,49,10.70
2023,03,30,12,50,10.60
2023,03,30,12,51,10.60
2023,03,30,12,52,10.70
2023,03,30,12,53,10.60
2023,03,30,12,54,10.60
2023,03,30,12,55,10.50
2023,03,30,12,56,10.40
2023,03,30,12,57,10.30
2023,03,30,12,58,10.40
2023,03,30,12,59,10.40
2023,03,30,13,00,10.50
2023,03,30,13,01,10.60
2023,03,30,13,02,10.60
2023,03,30,13,03,10.60
2023,03,30,13,04,10.50
2023,03,30,13,05,10.50
2023,03,30,13,06,10.60
2023,03,30,13,07,10.60
2023,03,30,13,08,10.70
2023,03,30,13,09,10.60
2023,03,30,13,10,10.60
2023,03,30,13,11,10.70
2023,03,30,13,12,10.70
2023,03,30,13,13,10.70
2023,03,30,13,14,10.60
2023,03,30,13,15,10.50
2023,03,30,13,16,10.70
2023,03,30,13,17,10.80
2023,03,30,13,18,10.90
2023,03,30,13,19,11.00
2023,03,30,13,20,11.10
2023,03,30,13,21,11.10
2023,03,30,13,22,11.10
2023,03,30,13,23,11.00
2023,03,30,13,24,11.10
2023,03,30,13,25,11.10
2023,03,30,13,26,11.20
2023,03,30,13,27,11.20
2023,03,30,13,28,11.20
2023,03,30,13,29,11.30
2023,03,30,13,30,11.30
2023,03,30,13,31,11.30
2023,03,30,13,32,11.30
2023,03,30,13,33,11.30
2023,03,30,13,34,11.30
2023,03,30,13,35,11.40
2023,03,30,13,36,11.40
2023,03,30,13,37,11.40
2023,03,30,13,38,11.40
2023,03,30,13,39,11.50
2023,03,30,13,40,11.60
2023,03,30,13,41,11.60
2023,03,30,13,42,11.40
2023,03,30,13,43,11.30
2023,03,30,13,44,11.20
2023,03,30,13,45,11.10
2023,03,30,13,46,11.10
2023,03,30,13,47,11.20
2023,03,30,13,48,11.30
2023,03,30,13,49,11.30
2023,03,30,13,50,11.30
2023,03,30,13,51,11.40
2023,03,30,13,52,11.40
2023,03,30,13,53,11.40
2023,03,30,13,54,11.30
2023,03,30,13,55,11.30
2023,03,30,13,56,11.30
2023,03,30,13,57,11.30
2023,03,30,13,58,11.40
2023,03,30,13,59,11.40
2023,03,30,14,00,11.50
2023,03,30,14,01,11.60
2023,03,30,14,02,11.60
2023,03,30,14,03,11.60
2023,03,30,14,04,11.60
2023,03,30,14,05,11.60
2023,03,30,14,06,11.60
2023,03,30,14,07,11.60
2023,03,30,14,08,11.50
2023,03,30,14,09,11.50
2023,03,30,14,10,11.40
2023,03,30,14,11,11.40
2023,03,30,14,12,11.50
2023,03,30,14,13,11.60
2023,03,30,14,14,11.70
2023,03,30,14,15,11.70
2023,03,30,14,16,11.70
2023,03,30,14,17,11.70
2023,03,30,14,18,11.60
2023,03,30,14,19,11.50
2023,03,30,14,20,11.40
2023,03,30,14,21,11.40
2023,03,30,14,22,11.30
2023,03,30,14,23,11.30
2023,03,30,14,24,11.30
2023,03,30,14,25,11.40
2023,03,30,14,26,11.50
2023,03,30,14,27,11.50
2023,03,30,14,28,11.60
2023,03,30,14,29,11.80
2023,03,30,14,30,11.90
2023,03,30,14,31,12.00
2023,03,30,14,32,12.10
2023,03,30,14,33,12.20
2023,03,30,14,34,12.30
2023,03,30,14,35,12.40
2023,03,30,14,36,12.30
2023,03,30,14,37,12.20
2023,03,30,14,38,12.00
2023,03,30,14,39,11.90
2023,03,30,14,40,11.90
2023,03,30,14,41,12.00
2023,03,30,14,42,12.10
2023,03,30,14,43,12.10
2023,03,30,14,44,12.20
2023,03,30,14,45,12.20
2023,03,30,14,46,12.20
2023,03,30,14,47,12.20
2023,03,30,14,48,12.20
2023,03,30,14,49,12.20
2023,03,30,14,50,12.20
2023,03,30,14,51,12.30
2023,03,30,14,52,12.30
2023,03,30,14,53,12.20
2023,03,30,14,54,12.10
2023,03,30,14,55,12.10
2023,03,30,14,56,12.10
2023,03,30,14,57,12.00
2023,03,30,14,58,11.90
2023,03,30,14,59,11.90
2023,03,30,15,00,12.00
2023,03,30,15,01,12.00
2023,03,30,15,02,12.00
2023,03,30,15,03,11.90
2023,03,30,15,04,11.80
2023,03,30,15,05,11.70
2023,03,30,15,06,11.70
2023,03,30,15,07,11.70
2023,03,30,15,08,11.70
2023,03,30,15,09,11.70
2023,03,30,15,10,11.80
2023,03,30,15,11,11.70
2023,03,30,15,12,11.70
2023,03,30,15,13,11.70
2023,03,30,15,14,11.60
2023,03,30,15,15,11.60
2023,03,30,15,16,11.60
2023,03,30,15,17,11.60
2023,03,30,15,18,11.60
2023,03,30,15,19,11.50
2023,03,30,15,20,11.50
2023,03,30,15,21,11.60
2023,03,30,15,22,11.60
2023,03,30,15,23,11.60
2023,03,30,15,24,11.70
2023,03,30,15,25,11.80
2023,03,30,15,26,11.90
2023,03,30,15,27,12.00
2023,03,30,15,28,12.10
2023,03,30,15,29,12.10
2023,03,30,15,30,12.20
2023,03,30,15,31,12.20
2023,03,30,15,32,12.30
2023,03,30,15,33,12.20
2023,03,30,15,34,12.20
2023,03,30,15,35,12.20
2023,03,30,15,36,12.20
2023,03,30,15,37,12.10
2023,03,30,15,38,12.10
2023,03,30,15,39,12.10
2023,03,30,15,40,12.10
2023,03,30,15,41,12.10
2023,03,30,15,42,11.90
2023,03,30,15,43,11.90
2023,03,30,15,44,11.90
2023,03,30,15,45,12.00
2023,03,30,15,46,12.00
2023,03,30,15,47,12.10
2023,03,30,15,48,12.10
2023,03,30,15,49,12.10
2023,03,30,15,50,12.10
2023,03,30,15,51,12.10
2023,03,30,15,52,12.20
2023,03,30,15,53,12.20
2023,03,30,15,54,12.20
2023,03,30,15,55,12.20
2023,03,30,15,56,12.20
2023,03,30,15,57,12.20
2023,03,30,15,58,12.20
2023,03,30,15,59,12.20
2023,03,30,16,00,12.20
2023,03,30,16,01,12.20
2023,03,30,16,02,12.10
2023,03,30,16,03,12.10
2023,03,30,16,04,12.10
2023,03,30,16,05,12.20
2023,03,30,16,06,12.20
2023,03,30,16,07,12.10
2023,03,30,16,08,12.10
2023,03,30,16,09,12.00
2023,03,30,16,10,12.00
2023,03,30,16,11,12.10
2023,03,30,16,12,12.10
2023,03,30,16,13,12.20
2023,03,30,16,14,12.20
2023,03,30,16,15,12.10
2023,03,30,16,16,12.10
2023,03,30,16,17,12.20
2023,03,30,16,18,12.20
2023,03,30,16,19,12.10
2023,03,30,16,20,12.10
2023,03,30,16,21,12.10
2023,03,30,16,22,12.00
2023,03,30,16,23,11.90
2023,03,30,16,24,11.90
2023,03,30,16,25,11.90
2023,03,30,16,26,11.90
2023,03,30,16,27,11.90
2023,03,30,16,28,12.00
2023,03,30,16,29,12.10
2023,03,30,16,30,12.10
2023,03,30,16,31,12.00
2023,03,30,16,32,12.00
2023,03,30,16,33,11.90
2023,03,30,16,34,11.90
2023,03,30,16,35,12.00
2023,03,30,16,36,12.10
2023,03,30,16,37,12.10
2023,03,30,16,38,12.10
2023,03,30,16,39,12.00
2023,03,30,16,40,12.00
2023,03,30,16,41,11.90
2023,03,30,16,42,11.70
2023,03,30,16,43,11.70
2023,03,30,16,44,11.70
2023,03,30,16,45,11.70
2023,03,30,16,46,11.70
2023,03,30,16,47,11.70
2023,03,30,16,48,11.70
2023,03,30,16,49,11.60
2023,03,30,16,50,11.60
2023,03,30,16,51,11.50
2023,03,30,16,52,11.50
2023,03,30,16,53,11.50
2023,03,30,16,54,11.60
2023,03,30,16,55,11.70
2023,03,30,16,56,11.70
2023,03,30,16,57,11.70
2023,03,30,16,58,11.60
2023,03,30,16,59,11.60
2023,03,30,17,00,11.60
2023,03,30,17,01,11.60
2023,03,30,17,02,11.60
2023,03,30,17,03,11.50
2023,03,30,17,04,11.50
2023,03,30,17,05,11.50
2023,03,30,17,06,11.50
2023,03,30,17,07,11.60
2023,03,30,17,08,11.60
2023,03,30,17,09,11.60
2023,03,30,17,10,11.60
2023,03,30,17,11,11.60
2023,03,30,17,12,11.60
2023,03,30,17,13,11.50
2023,03,30,17,14,11.40
2023,03,30,17,15,11.30
2023,03,30,17,16,11.20
2023,03,30,17,17,11.20
2023,03,30,17,18,11.20
2023,03,30,17,19,11.20
2023,03,30,17,20,11.20
2023,03,30,17,21,11.10
2023,03,30,17,22,11.10
2023,03,30,17,23,11.10
2023,03,30,17,24,11.00
2023,03,30,17,25,10.90
2023,03,30,17,26,10.90
2023,03,30,17,27,10.80
2023,03,30,17,28,10.80
2023,03,30,17,29,10.80
2023,03,30,17,30,10.80
2023,03,30,17,31,10.80
2023,03,30,17,32,10.80
2023,03,30,17,33,10.80
2023,03,30,17,34,10.70
2023,03,30,17,35,10.70
2023,03,30,17,36,10.70
2023,03,30,17,37,10.70
2023,03,30,17,38,10.70
2023,03,30,17,39,10.70
2023,03,30,17,40,10.70
2023,03,30,17,41,10.70
2023,03,30,17,42,10.70
2023,03,30,17,43,10.60
2023,03,30,17,44,10.60
2023,03,30,17,45,10.60
2023,03,30,17,46,10.60
2023,03,30,17,47,10.60
2023,03,30,17,48,10.60
2023,03,30,17,49,10.60
2023,03,30,17,50,10.60
2023,03,30,17,51,10.60
2023,03,30,17,52,10.60
2023,03,30,17,53,10.50
2023,03,30,17,54,10.40
2023,03,30,17,55,10.40
2023,03,30,17,56,10.30
2023,03,30,17,57,10.30
2023,03,30,17,58,10.30
2023,03,30,17,59,10.30
2023,03,30,18,00,10.30
2023,03,30,18,01,10.20
2023,03,30,18,02,10.20
2023,03,30,18,03,10.20
2023,03,30,18,04,10.20
2023,03,30,18,05,10.20
2023,03,30,18,06,10.20
2023,03,30,18,07,10.20
2023,03,30,18,08,10.20
2023,03,30,18,09,10.20
2023,03,30,18,10,10.10
2023,03,30,18,11,10.20
2023,03,30,18,12,10.10
2023,03,30,18,13,10.20
2023,03,30,18,14,10.20
2023,03,30,18,15,10.20
2023,03,30,18,16,10.20
2023,03,30,18,17,10.30
2023,03,30,18,18,10.30
2023,03,30,18,19,10.40
2023,03,30,18,20,10.50
2023,03,30,18,21,10.50
2023,03,30,18,22,10.60
2023,03,30,18,23,10.60
2023,03,30,18,24,10.70
2023,03,30,18,25,10.70
2023,03,30,18,26,10.70
2023,03,30,18,27,10.60
2023,03,30,18,28,10.50
2023,03,30,18,29,10.40
2023,03,30,18,30,10.40
2023,03,30,18,31,10.40
2023,03,30,18,32,10.40
2023,03,30,18,33,10.40
2023,03,30,18,34,10.50
2023,03,30,18,35,10.60
2023,03,30,18,36,10.60
2023,03,30,18,37,10.60
2023,03,30,18,38,10.50
2023,03,30,18,39,10.50
2023,03,30,18,40,10.50
2023,03,30,18,41,10.40
2023,03,30,18,42,10.40
2023,03,30,18,43,10.40
2023,03,30,18,44,10.40
2023,03,30,18,45,10.40
2023,03,30,18,46,10.40
2023,03,30,18,47,10.40
2023,03,30,18,48,10.40
2023,03,30,18,49,10.30
2023,03,30,18,50,10.40
2023,03,30,18,51,10.40
2023,03,30,18,52,10.30
2023,03,30,18,53,10.30
2023,03,30,18,54,10.30
2023,03,30,18,55,10.30
2023,03,30,18,56,10.20
2023,03,30,18,57,10.20
2023,03,30,18,58,10.20
2023,03,30,18,59,10.20
2023,03,30,19,00,10.10
2023,03,30,19,01,10.10
2023,03,30,19,02,10.10
2023,03,30,19,03,10.10
2023,03,30,19,04,10.10
2023,03,30,19,05,10.00
2023,03,30,19,06,9.90
2023,03,30,19,07,9.80
2023,03,30,19,08,9.80
2023,03,30,19,09,9.80
2023,03,30,19,10,9.80
2023,03,30,19,11,9.80
2023,03,30,19,12,9.80
2023,03,30,19,13,9.80
2023,03,30,19,14,9.70
2023,03,30,19,15,9.70
2023,03,30,19,16,9.70
2023,03,30,19,17,9.70
2023,03,30,19,18,9.60
2023,03,30,19,19,9.60
2023,03,30,19,20,9.60
2023,03,30,19,21,9.50
2023,03,30,19,22,9.50
2023,03,30,19,23,9.40
2023,03,30,19,24,9.40
2023,03,30,19,25,9.30
2023,03,30,19,26,9.30
2023,03,30,19,27,9.30
2023,03,30,19,28,9.30
2023,03,30,19,29,9.30
2023,03,30,19,30,9.30
2023,03,30,19,31,9.30
2023,03,30,19,32,9.30
2023,03,30,19,33,9.30
2023,03,30,19,34,9.30
2023,03,30,19,35,9.30
2023,03,30,19,36,9.30
2023,03,30,19,37,9.30
